STARLINK-36700, 67662

Orbit data source: Space-Track

STARLINK-36700, 67662 is a payload satellite owned by SpaceX/Seattle (US) in SSO that was launched on Mon, 02 Feb 2026 UTC via an FALCON 9 launch vehicle from the Air Force Western Test Range (AFWTR). Payload-class satellites include a variety of spacecraft equipped with specific instruments for various scientific and technological missions. These include communications satellites like Starlink; space stations such as the ISS; scientific satellites like the Hubble; Earth observation satellites from companies like Planet Labs, Umbra, and HawkEye 360; GPS; miniature CubeSats for education and research; and military/defense satellites.

Loading next visibility...
Identifier
67662, 2026-022Q
Orbit
SSO
Country
Flag of USUS
Related business
Manufacturer
SpaceX/Seattle
Mission
Operational spacecraft
Bus & Motor
STARLINK V2MO, Unknown motor
Mass
575 kg wet, ~530 kg dry
Launch date (UTC)
2026-02-02 (2 months ago)
Launch vehicle
FALCON 9
Launch site
Air Force Western Test Range (AFWTR)
Object type
Payload
Rocket body
Debris
Shape & HBR
Unknown shape, 17.7 m
Radar Cross Section
RCS unknown

Expand to show TLE details & history
Last TLE update: 13 hours ago

TLE from 13 hours ago
0 STARLINK-36700
1 67662U 26022Q   26095.08808834  .00032305  00000-0  99935-3 0  9991
2 67662  97.2841 129.1325 0001780 101.1577 258.9866 15.33423399  9624
Epoch: 2026-04-05T02:06Z
TLE epoch observation values (Epoch: 2026-04-05T02:06:50.832Z)
Latitude
-0.00002°
Longitude
-95.97783°
Altitude
468.952 km
Speed
7.632 km/s
True Right ascension
08h 36m 31s
True Declination
0° 00' 00"
Sunlit
Object was in full shadow at epoch
Visualization orbit readout
Latitude
Unknown
Longitude
Unknown
Altitude
Unknown
Speed
Unknown
Apparent Right ascension
Unknown
Apparent Declination
Unknown
Sunlit
N/A
Visualization observer readout
Local Sidereal Time
20:58:56
Azimuth
Unknown
Elevation
Unknown
Doppler factor
Unknown
Orbital elements
Apogee altitude
463.768 km
Perigee altitude
461.333 km
Semi-major axis
6,840.687 km
Eccentricity
0.00018
Inclination
97.2841°
RAAN
129.1325°
Arg. of periapsis
101.1577°
True anomaly
258.96658°
Mean anomaly
258.9866°
Eccentric anomaly
258.97659°
Mean motion
3.83613 °/min
Orbital period
93.84 mins
BSTAR
0.00099935
Loading maneuver chart data...
Computing Atmospheric mass density...
Loading historical data...
Loading historical data...
Loading historical data...
Loading historical data...
Loading historical data...
Loading historical data...
Loading historical data...

Documentation

Showing up to 5 results
|